| time (UTC) | temp F | wind direction | speed MPH | gust MPH | rain 1hr in | rain 24hr in | rain mn in | humidity % | barometer mb |
| 20260505230542 | 62 | 257 | 1.0 | 6.0 | 0.00 | 0.00 | 0.00 | 72 | 1004.2 |
| 20260505230045 | 62 | 215 | 0.0 | 5.0 | 0.00 | 0.00 | 0.00 | 73 | 1004.2 |
| 20260505225543 | 62 | 236 | 0.0 | 7.0 | 0.00 | 0.00 | 0.00 | 74 | 1004.1 |
| 20260505225043 | 62 | 242 | 0.0 | 7.0 | 0.00 | 0.00 | 0.00 | 75 | 1004.0 |
| 20260505224541 | 61 | 225 | 0.0 | 6.0 | 0.00 | 0.00 | 0.00 | 76 | 1004.1 |
| 20260505224040 | 61 | 202 | 2.0 | 9.0 | 0.00 | 0.00 | 0.00 | 76 | 1004.1 |
| 20260505223541 | 61 | 197 | 3.0 | 9.0 | 0.00 | 0.00 | 0.00 | 77 | 1004.1 |
| 20260505223057 | 61 | 173 | 2.0 | 9.0 | 0.00 | 0.00 | 0.00 | 78 | 1004.1 |
| 20260505222541 | 61 | 197 | 3.0 | 9.0 | 0.00 | 0.00 | 0.00 | 78 | 1004.2 |
| 20260505222040 | 60 | 215 | 4.0 | 8.0 | 0.00 | 0.00 | 0.00 | 79 | 1004.1 |
| 20260505221555 | 60 | 221 | 5.0 | 12.0 | 0.00 | 0.00 | 0.00 | 79 | 1003.9 |
| 20260505221039 | 60 | 203 | 4.0 | 12.0 | 0.00 | 0.00 | 0.00 | 79 | 1003.9 |
| 20260505220542 | 60 | 215 | 4.0 | 9.0 | 0.00 | 0.00 | 0.00 | 79 | 1003.8 |
| 20260505220040 | 60 | 203 | 5.0 | 9.0 | 0.00 | 0.00 | 0.00 | 78 | 1003.7 |
| 20260505215539 | 60 | 181 | 4.0 | 9.0 | 0.00 | 0.00 | 0.00 | 78 | 1003.7 |
| 20260505215039 | 60 | 173 | 5.0 | 9.0 | 0.00 | 0.00 | 0.00 | 77 | 1003.8 |
| 20260505214547 | 60 | 183 | 2.0 | 7.0 | 0.00 | 0.00 | 0.00 | 77 | 1003.7 |
| 20260505214038 | 60 | 183 | 4.0 | 7.0 | 0.00 | 0.00 | 0.00 | 78 | 1003.8 |
| 20260505213537 | 60 | 223 | 1.0 | 7.0 | 0.00 | 0.00 | 0.00 | 78 | 1003.6 |
| 20260505213037 | 60 | 205 | 0.0 | 9.0 | 0.00 | 0.00 | 0.00 | 78 | 1003.7 |
| 20260505212537 | 60 | 235 | 0.0 | 9.0 | 0.00 | 0.00 | 0.00 | 77 | 1003.7 |
| 20260505212037 | 60 | 300 | 2.0 | 10.0 | 0.00 | 0.00 | 0.00 | 78 | 1003.8 |
| 20260505211536 | 60 | 198 | 1.0 | 7.0 | 0.00 | 0.00 | 0.00 | 79 | 1003.9 |
| 20260505211035 | 60 | 249 | 2.0 | 7.0 | 0.00 | 0.00 | 0.00 | 80 | 1004.1 |
| 20260505210536 | 61 | 251 | 1.0 | 9.0 | 0.00 | 0.00 | 0.00 | 81 | 1004.2 |
| 20260505210035 | 60 | 261 | 4.0 | 9.0 | 0.00 | 0.00 | 0.00 | 81 | 1004.3 |
| 20260505205537 | 61 | 244 | 2.0 | 6.0 | 0.00 | 0.00 | 0.00 | 83 | 1004.0 |
| 20260505205036 | 61 | 232 | 1.0 | 5.0 | 0.00 | 0.00 | 0.00 | 84 | 1004.2 |
| 20260505204535 | 60 | 164 | 1.0 | 6.0 | 0.00 | 0.00 | 0.00 | 85 | 1004.1 |
| 20260505204034 | 60 | 303 | 0.0 | 6.0 | 0.00 | 0.00 | 0.00 | 86 | 1004.2 |
| 20260505203534 | 60 | 247 | 0.0 | 4.0 | 0.00 | 0.00 | 0.00 | 86 | 1004.2 |
| 20260505203036 | 59 | 296 | 1.0 | 8.0 | 0.00 | 0.00 | 0.00 | 86 | 1004.1 |
| 20260505202534 | 59 | 266 | 1.0 | 8.0 | 0.00 | 0.00 | 0.00 | 86 | 1004.1 |
| 20260505202034 | 59 | 211 | 2.0 | 6.0 | 0.00 | 0.00 | 0.00 | 87 | 1004.1 |
| 20260505201533 | 58 | 303 | 1.0 | 10.0 | 0.00 | 0.00 | 0.00 | 86 | 1003.9 |
| 20260505201032 | 58 | 213 | 0.0 | 10.0 | 0.00 | 0.00 | 0.00 | 85 | 1003.9 |
| 20260505200532 | 58 | 259 | 0.0 | 8.0 | 0.00 | 0.00 | 0.00 | 83 | 1003.9 |
| 20260505200034 | 59 | 252 | 1.0 | 8.0 | 0.00 | 0.00 | 0.00 | 81 | 1003.7 |
| 20260505195531 | 59 | 210 | 0.0 | 5.0 | 0.00 | 0.00 | 0.00 | 79 | 1004.7 |
| 20260505195030 | 60 | 205 | 1.0 | 11.0 | 0.00 | 0.00 | 0.00 | 77 | 1004.3 |
| 20260505194530 | 61 | 304 | 2.0 | 23.0 | 0.00 | 0.00 | 0.00 | 75 | 1004.2 |
| 20260505194032 | 62 | 267 | 12.0 | 23.0 | 0.00 | 0.00 | 0.00 | 72 | 1003.8 |
| 20260505193530 | 63 | 265 | 8.0 | 13.0 | 0.00 | 0.00 | 0.00 | 77 | 1003.6 |
| 20260505193030 | 64 | 303 | 3.0 | 5.0 | 0.00 | 0.00 | 0.00 | 76 | 1003.0 |
| 20260505192529 | 64 | 309 | 0.0 | 3.0 | 0.00 | 0.00 | 0.00 | 76 | 1002.6 |
| 20260505192029 | 64 | 301 | 0.0 | 5.0 | 0.00 | 0.00 | 0.00 | 76 | 1002.6 |
| 20260505191528 | 63 | 309 | 1.0 | 5.0 | 0.00 | 0.00 | 0.00 | 77 | 1002.6 |
| 20260505191028 | 63 | 284 | 1.0 | 5.0 | 0.00 | 0.00 | 0.00 | 76 | 1002.5 |
| 20260505190530 | 62 | 351 | 1.0 | 8.0 | 0.00 | 0.00 | 0.00 | 78 | 1002.6 |
| 20260505190028 | 62 | 298 | 0.0 | 8.0 | 0.00 | 0.00 | 0.00 | 79 | 1002.8 |
| 20260505185527 | 60 | 189 | 4.0 | 10.0 | 0.00 | 0.00 | 0.00 | 80 | 1002.8 |
| 20260505185027 | 60 | 209 | 3.0 | 7.0 | 0.00 | 0.00 | 0.00 | 82 | 1002.9 |
| 20260505184528 | 60 | 329 | 4.0 | 8.0 | 0.00 | 0.00 | 0.00 | 82 | 1003.2 |
| 20260505184026 | 59 | 292 | 1.0 | 11.0 | 0.00 | 0.00 | 0.00 | 81 | 1003.2 |
| 20260505183526 | 59 | 211 | 4.0 | 11.0 | 0.00 | 0.00 | 0.00 | 81 | 1003.3 |
| 20260505183040 | 59 | 181 | 5.0 | 11.0 | 0.00 | 0.00 | 0.00 | 79 | 1003.1 |
| 20260505182524 | 61 | 28 | 2.0 | 26.0 | 0.00 | 0.00 | 0.00 | 75 | 1003.7 |
| 20260505182022 | 63 | 292 | 4.0 | 26.0 | 0.00 | 0.00 | 0.00 | 70 | 1004.3 |
| 20260505181522 | 66 | 188 | 6.0 | 24.0 | 0.00 | 0.00 | 0.00 | 56 | 1003.7 |
| 20260505181021 | 66 | 229 | 2.0 | 4.0 | 0.00 | 0.00 | 0.00 | 63 | 1003.0 |
| 20260505180521 | 66 | 92 | 0.0 | 7.0 | 0.00 | 0.00 | 0.00 | 61 | 1002.7 |
| 20260505180021 | 66 | 148 | 2.0 | 6.0 | 0.00 | 0.00 | 0.00 | 61 | 1002.6 |
| 20260505175521 | 67 | 213 | 0.0 | 12.0 | 0.00 | 0.00 | 0.00 | 58 | 1002.6 |
| 20260505175020 | 69 | 256 | 5.0 | 16.0 | 0.00 | 0.00 | 0.00 | 52 | 1002.5 |
| 20260505174520 | 72 | 287 | 5.0 | 19.0 | 0.00 | 0.00 | 0.00 | 42 | 1002.9 |
| 20260505174020 | 73 | 183 | 3.0 | 18.0 | 0.00 | 0.00 | 0.00 | 37 | 1002.7 |
| 20260505173519 | 73 | 265 | 5.0 | 21.0 | 0.00 | 0.00 | 0.00 | 36 | 1002.6 |
| 20260505173022 | 74 | 196 | 6.0 | 21.0 | 0.00 | 0.00 | 0.00 | 36 | 1002.9 |
| 20260505172522 | 75 | 24 | 6.0 | 16.0 | 0.00 | 0.00 | 0.00 | 35 | 1002.7 |
| 20260505172019 | 76 | 173 | 5.0 | 19.0 | 0.00 | 0.00 | 0.00 | 36 | 1002.6 |
| 20260505171517 | 75 | 198 | 5.0 | 19.0 | 0.00 | 0.00 | 0.00 | 37 | 1002.6 |
| 20260505171017 | 75 | 248 | 6.0 | 17.0 | 0.00 | 0.00 | 0.00 | 38 | 1002.4 |
| 20260505170517 | 74 | 300 | 5.0 | 17.0 | 0.00 | 0.00 | 0.00 | 37 | 1002.4 |
| 20260505170018 | 74 | 204 | 3.0 | 18.0 | 0.00 | 0.00 | 0.00 | 36 | 1002.6 |
| 20260505165516 | 74 | 233 | 7.0 | 18.0 | 0.00 | 0.00 | 0.00 | 36 | 1002.5 |
| 20260505165016 | 74 | 13 | 6.0 | 15.0 | 0.00 | 0.00 | 0.00 | 36 | 1002.5 |
| 20260505164517 | 74 | 290 | 5.0 | 15.0 | 0.00 | 0.00 | 0.00 | 36 | 1002.7 |
| 20260505164015 | 75 | 224 | 3.0 | 20.0 | 0.00 | 0.00 | 0.00 | 37 | 1002.7 |
| 20260505163515 | 75 | 196 | 8.0 | 20.0 | 0.00 | 0.00 | 0.00 | 36 | 1002.8 |
| 20260505163015 | 75 | 225 | 8.0 | 20.0 | 0.00 | 0.00 | 0.00 | 35 | 1002.9 |
| 20260505162513 | 74 | 232 | 4.0 | 25.0 | 0.00 | 0.00 | 0.00 | 36 | 1003.0 |
| 20260505162014 | 74 | 250 | 9.0 | 26.0 | 0.00 | 0.00 | 0.00 | 37 | 1003.0 |
| 20260505161513 | 74 | 197 | 8.0 | 15.0 | 0.00 | 0.00 | 0.00 | 36 | 1003.1 |
| 20260505161012 | 74 | 239 | 6.0 | 20.0 | 0.00 | 0.00 | 0.00 | 38 | 1002.9 |
| 20260505160512 | 74 | 284 | 8.0 | 20.0 | 0.00 | 0.00 | 0.00 | 36 | 1002.9 |
| 20260505153004 | 71 | 198 | 10.0 | 24.0 | 0.00 | 0.00 | 0.00 | 40 | 1003.1 |
| 20260505152502 | 71 | 209 | 10.0 | 22.0 | 0.00 | 0.00 | 0.00 | 41 | 1003.3 |
| 20260505152002 | 70 | 206 | 10.0 | 22.0 | 0.00 | 0.00 | 0.00 | 42 | 1003.3 |
| 20260505151500 | 70 | 212 | 11.0 | 22.0 | 0.00 | 0.00 | 0.00 | 42 | 1003.4 |
| 20260505151100 | 70 | 237 | 8.0 | 19.0 | 0.00 | 0.00 | 0.00 | 43 | 1003.4 |
| 20260505150559 | 70 | 187 | 5.0 | 14.0 | 0.00 | 0.00 | 0.00 | 45 | 1003.5 |
| 20260505140545 | 67 | 230 | 6.0 | 18.0 | 0.00 | 0.00 | 0.00 | 49 | 1003.8 |
| 20260505125024 | 62 | 201 | 4.0 | 12.0 | 0.00 | 0.00 | 0.00 | 58 | 1004.6 |
| 20260505124523 | 62 | 213 | 5.0 | 16.0 | 0.00 | 0.00 | 0.00 | 59 | 1004.7 |
| 20260505124020 | 62 | 199 | 5.0 | 16.0 | 0.00 | 0.00 | 0.00 | 60 | 1004.8 |
| 20260505123525 | 61 | 235 | 2.0 | 18.0 | 0.00 | 0.00 | 0.00 | 59 | 1004.6 |
| 20260505123019 | 61 | 266 | 6.0 | 18.0 | 0.00 | 0.00 | 0.00 | 59 | 1004.6 |
| 20260505122518 | 61 | 209 | 5.0 | 16.0 | 0.00 | 0.00 | 0.00 | 59 | 1004.5 |
| 20260505122021 | 60 | 207 | 9.0 | 16.0 | 0.00 | 0.00 | 0.00 | 59 | 1004.5 |
| 20260505121516 | 60 | 206 | 6.0 | 17.0 | 0.00 | 0.00 | 0.00 | 60 | 1004.4 |
| 20260505121014 | 60 | 167 | 5.0 | 13.0 | 0.00 | 0.00 | 0.00 | 61 | 1004.3 |
| 20260505120515 | 59 | 200 | 3.0 | 13.0 | 0.00 | 0.00 | 0.00 | 62 | 1004.2 |
| 20260505120012 | 59 | 188 | 4.0 | 13.0 | 0.00 | 0.00 | 0.00 | 62 | 1004.1 |
| 20260505115513 | 59 | 231 | 5.0 | 18.0 | 0.00 | 0.00 | 0.00 | 62 | 1003.9 |
| 20260505115013 | 59 | 173 | 8.0 | 14.0 | 0.00 | 0.00 | 0.00 | 60 | 1004.0 |
| 20260505114512 | 59 | 194 | 4.0 | 14.0 | 0.00 | 0.00 | 0.00 | 60 | 1003.9 |
| 20260505114010 | 59 | 134 | 4.0 | 18.0 | 0.00 | 0.00 | 0.00 | 60 | 1003.9 |
| 20260505113514 | 59 | 216 | 6.0 | 18.0 | 0.00 | 0.00 | 0.00 | 60 | 1004.1 |
| 20260505113011 | 58 | 197 | 5.0 | 14.0 | 0.00 | 0.00 | 0.00 | 60 | 1004.3 |
| 20260505112511 | 58 | 212 | 4.0 | 21.0 | 0.00 | 0.00 | 0.00 | 61 | 1004.3 |
| 20260505112010 | 58 | 205 | 9.0 | 21.0 | 0.00 | 0.00 | 0.00 | 60 | 1004.3 |
| 20260505111510 | 58 | 198 | 9.0 | 21.0 | 0.00 | 0.00 | 0.00 | 60 | 1004.3 |
| 20260505111009 | 58 | 194 | 9.0 | 21.0 | 0.00 | 0.00 | 0.00 | 61 | 1004.1 |
| 20260505110506 | 58 | 228 | 6.0 | 17.0 | 0.00 | 0.00 | 0.00 | 60 | 1004.1 |
| 20260505102002 | 56 | 180 | 6.0 | 12.0 | 0.00 | 0.00 | 0.00 | 65 | 1003.5 |
| 20260505101600 | 56 | 146 | 6.0 | 13.0 | 0.00 | 0.00 | 0.00 | 64 | 1003.6 |
| 20260505101058 | 56 | 188 | 5.0 | 11.0 | 0.00 | 0.00 | 0.00 | 64 | 1003.5 |
| 20260505100557 | 56 | 190 | 4.0 | 11.0 | 0.00 | 0.00 | 0.00 | 65 | 1003.6 |
| 20260505100056 | 55 | 184 | 4.0 | 9.0 | 0.00 | 0.00 | 0.00 | 66 | 1003.7 |
| 20260505095556 | 55 | 196 | 2.0 | 8.0 | 0.00 | 0.00 | 0.00 | 67 | 1003.7 |
| 20260505095056 | 55 | 176 | 3.0 | 8.0 | 0.00 | 0.00 | 0.00 | 68 | 1003.7 |
| 20260505094554 | 55 | 168 | 3.0 | 9.0 | 0.00 | 0.00 | 0.00 | 69 | 1003.9 |
| 20260505094055 | 55 | 180 | 4.0 | 10.0 | 0.00 | 0.00 | 0.00 | 70 | 1004.0 |
| 20260505093553 | 55 | 183 | 6.0 | 10.0 | 0.00 | 0.00 | 0.00 | 70 | 1004.0 |
| 20260505093053 | 55 | 183 | 4.0 | 8.0 | 0.00 | 0.00 | 0.00 | 70 | 1004.0 |
| 20260505092555 | 55 | 177 | 2.0 | 9.0 | 0.00 | 0.00 | 0.00 | 70 | 1004.1 |
| 20260505092050 | 55 | 169 | 3.0 | 7.0 | 0.00 | 0.00 | 0.00 | 70 | 1004.2 |
| 20260505091604 | 56 | 211 | 3.0 | 9.0 | 0.00 | 0.00 | 0.00 | 68 | 1004.1 |
| 20260505091048 | 57 | 190 | 2.0 | 12.0 | 0.00 | 0.00 | 0.00 | 66 | 1004.1 |
| 20260505090546 | 58 | 189 | 6.0 | 14.0 | 0.00 | 0.00 | 0.00 | 57 | 1004.4 |
| 20260505090049 | 58 | 221 | 6.0 | 14.0 | 0.00 | 0.00 | 0.00 | 56 | 1004.1 |
| 20260505085545 | 57 | 201 | 5.0 | 17.0 | 0.00 | 0.00 | 0.00 | 54 | 1003.9 |
| 20260505085045 | 57 | 148 | 6.0 | 17.0 | 0.00 | 0.00 | 0.00 | 54 | 1003.9 |
| 20260505084548 | 57 | 188 | 6.0 | 11.0 | 0.00 | 0.00 | 0.00 | 54 | 1003.8 |
| 20260505084044 | 57 | 173 | 5.0 | 12.0 | 0.00 | 0.00 | 0.00 | 54 | 1003.9 |
| 20260505083543 | 57 | 196 | 5.0 | 12.0 | 0.00 | 0.00 | 0.00 | 53 | 1003.9 |
| 20260505083044 | 57 | 182 | 4.0 | 10.0 | 0.00 | 0.00 | 0.00 | 53 | 1003.9 |
| 20260505082543 | 57 | 169 | 5.0 | 9.0 | 0.00 | 0.00 | 0.00 | 53 | 1003.9 |
| 20260505082043 | 57 | 182 | 5.0 | 10.0 | 0.00 | 0.00 | 0.00 | 53 | 1003.8 |
| 20260505081543 | 57 | 215 | 3.0 | 10.0 | 0.00 | 0.00 | 0.00 | 53 | 1004.1 |
| 20260505081043 | 57 | 186 | 2.0 | 8.0 | 0.00 | 0.00 | 0.00 | 53 | 1004.1 |
| 20260505080545 | 57 | 211 | 3.0 | 7.0 | 0.00 | 0.00 | 0.00 | 53 | 1004.2 |
| 20260505080044 | 57 | 210 | 3.0 | 7.0 | 0.00 | 0.00 | 0.00 | 55 | 1004.3 |
| 20260505075545 | 57 | 209 | 2.0 | 5.0 | 0.00 | 0.00 | 0.00 | 56 | 1004.4 |
| 20260505075042 | 57 | 173 | 2.0 | 6.0 | 0.00 | 0.00 | 0.00 | 56 | 1004.6 |
| 20260505074541 | 57 | 50 | 0.0 | 10.0 | 0.00 | 0.00 | 0.00 | 56 | 1004.6 |
| 20260505074039 | 57 | 5 | 1.0 | 10.0 | 0.00 | 0.00 | 0.00 | 55 | 1004.6 |
| 20260505073539 | 57 | 253 | 2.0 | 11.0 | 0.00 | 0.00 | 0.00 | 55 | 1004.5 |
| 20260505073043 | 57 | 205 | 6.0 | 14.0 | 0.00 | 0.00 | 0.00 | 55 | 1004.4 |
| 20260505072640 | 57 | 244 | 4.0 | 14.0 | 0.00 | 0.00 | 0.00 | 55 | 1004.3 |
| 20260505072038 | 58 | 229 | 7.0 | 16.0 | 0.00 | 0.00 | 0.00 | 51 | 1004.4 |
| 20260505071536 | 58 | 217 | 9.0 | 16.0 | 0.00 | 0.00 | 0.00 | 50 | 1004.2 |
| 20260505071035 | 58 | 217 | 8.0 | 19.0 | 0.00 | 0.00 | 0.00 | 50 | 1004.0 |
| 20260505070536 | 58 | 194 | 9.0 | 19.0 | 0.00 | 0.00 | 0.00 | 50 | 1004.0 |
| 20260505070041 | 58 | 180 | 11.0 | 16.0 | 0.00 | 0.00 | 0.00 | 49 | 1003.9 |
| 20260505065535 | 58 | 182 | 9.0 | 18.0 | 0.00 | 0.00 | 0.00 | 50 | 1003.8 |
| 20260505065034 | 58 | 145 | 9.0 | 21.0 | 0.00 | 0.00 | 0.00 | 49 | 1003.8 |
| 20260505064535 | 58 | 190 | 10.0 | 21.0 | 0.00 | 0.00 | 0.00 | 49 | 1003.8 |
| 20260505064032 | 58 | 178 | 8.0 | 21.0 | 0.00 | 0.00 | 0.00 | 50 | 1003.8 |
| 20260505063532 | 58 | 215 | 13.0 | 22.0 | 0.00 | 0.00 | 0.00 | 49 | 1003.8 |
| 20260505063031 | 58 | 182 | 7.0 | 22.0 | 0.00 | 0.00 | 0.00 | 50 | 1003.9 |
| 20260505062532 | 58 | 201 | 10.0 | 23.0 | 0.00 | 0.00 | 0.00 | 51 | 1003.8 |
| 20260505062029 | 58 | 162 | 10.0 | 22.0 | 0.00 | 0.00 | 0.00 | 49 | 1003.8 |
| 20260505061538 | 58 | 159 | 10.0 | 17.0 | 0.00 | 0.00 | 0.00 | 49 | 1003.9 |
| 20260505061027 | 58 | 186 | 9.0 | 16.0 | 0.00 | 0.00 | 0.00 | 49 | 1003.9 |
| 20260505060527 | 58 | 208 | 10.0 | 17.0 | 0.00 | 0.00 | 0.00 | 49 | 1004.1 |
| 20260505060026 | 58 | 223 | 8.0 | 17.0 | 0.00 | 0.00 | 0.00 | 49 | 1004.0 |
| 20260505055525 | 58 | 171 | 7.0 | 18.0 | 0.00 | 0.00 | 0.00 | 49 | 1004.0 |
| 20260505055026 | 58 | 177 | 11.0 | 18.0 | 0.00 | 0.00 | 0.00 | 49 | 1004.1 |
| 20260505054533 | 58 | 163 | 10.0 | 18.0 | 0.00 | 0.00 | 0.00 | 48 | 1004.0 |
| 20260505054025 | 58 | 201 | 8.0 | 18.0 | 0.00 | 0.00 | 0.00 | 48 | 1004.1 |
| 20260505053527 | 59 | 177 | 8.0 | 21.0 | 0.00 | 0.00 | 0.00 | 47 | 1004.1 |
| 20260505053023 | 59 | 152 | 11.0 | 21.0 | 0.00 | 0.00 | 0.00 | 47 | 1004.2 |
| 20260505052521 | 59 | 173 | 10.0 | 24.0 | 0.00 | 0.00 | 0.00 | 47 | 1004.1 |
| 20260505052020 | 59 | 202 | 8.0 | 26.0 | 0.00 | 0.00 | 0.00 | 46 | 1004.1 |
| 20260505051521 | 59 | 209 | 12.0 | 26.0 | 0.00 | 0.00 | 0.00 | 46 | 1004.2 |
| 20260505051019 | 59 | 166 | 8.0 | 20.0 | 0.00 | 0.00 | 0.00 | 46 | 1004.3 |
| 20260505050521 | 59 | 192 | 8.0 | 18.0 | 0.00 | 0.00 | 0.00 | 47 | 1004.3 |
| 20260505041517 | 59 | 185 | 6.0 | 15.0 | 0.00 | 0.00 | 0.00 | 46 | 1004.3 |
| 20260505041008 | 59 | 198 | 8.0 | 16.0 | 0.00 | 0.00 | 0.00 | 46 | 1004.2 |
| 20260505040507 | 59 | 182 | 7.0 | 16.0 | 0.00 | 0.00 | 0.00 | 46 | 1004.3 |
| 20260505040007 | 59 | 167 | 7.0 | 14.0 | 0.00 | 0.00 | 0.00 | 46 | 1004.3 |
| 20260505035511 | 59 | 177 | 8.0 | 14.0 | 0.00 | 0.00 | 0.00 | 45 | 1004.3 |
| 20260505035006 | 59 | 211 | 7.0 | 17.0 | 0.00 | 0.00 | 0.00 | 45 | 1004.2 |
| 20260505034505 | 59 | 191 | 7.0 | 17.0 | 0.00 | 0.00 | 0.00 | 45 | 1004.1 |
| 20260505034005 | 59 | 168 | 8.0 | 16.0 | 0.00 | 0.00 | 0.00 | 44 | 1004.1 |
| 20260505033506 | 59 | 155 | 6.0 | 16.0 | 0.00 | 0.00 | 0.00 | 44 | 1004.1 |
| 20260505033005 | 59 | 131 | 7.0 | 15.0 | 0.00 | 0.00 | 0.00 | 44 | 1004.1 |
| 20260505032505 | 59 | 195 | 4.0 | 14.0 | 0.00 | 0.00 | 0.00 | 44 | 1004.3 |
| 20260505032006 | 59 | 174 | 7.0 | 15.0 | 0.00 | 0.00 | 0.00 | 44 | 1004.3 |
| 20260505031507 | 59 | 188 | 8.0 | 14.0 | 0.00 | 0.00 | 0.00 | 43 | 1004.3 |
| 20260505031007 | 60 | 148 | 7.0 | 12.0 | 0.00 | 0.00 | 0.00 | 43 | 1004.3 |
| 20260505030503 | 60 | 192 | 6.0 | 14.0 | 0.00 | 0.00 | 0.00 | 42 | 1004.3 |
| 20260505030003 | 60 | 177 | 8.0 | 18.0 | 0.00 | 0.00 | 0.00 | 42 | 1004.3 |
| 20260505025504 | 61 | 133 | 7.0 | 18.0 | 0.00 | 0.00 | 0.00 | 41 | 1004.4 |
| 20260505025004 | 61 | 202 | 8.0 | 14.0 | 0.00 | 0.00 | 0.00 | 41 | 1004.4 |
| 20260505024504 | 61 | 187 | 7.0 | 14.0 | 0.00 | 0.00 | 0.00 | 41 | 1004.4 |
| 20260505024003 | 61 | 151 | 6.0 | 14.0 | 0.00 | 0.00 | 0.00 | 41 | 1004.4 |
| 20260505023503 | 61 | 186 | 6.0 | 11.0 | 0.00 | 0.00 | 0.00 | 41 | 1004.6 |
| 20260505023008 | 61 | 181 | 5.0 | 11.0 | 0.00 | 0.00 | 0.00 | 40 | 1004.5 |
| 20260505022502 | 61 | 182 | 6.0 | 13.0 | 0.00 | 0.00 | 0.00 | 40 | 1004.6 |
| 20260505022003 | 61 | 186 | 5.0 | 11.0 | 0.00 | 0.00 | 0.00 | 40 | 1004.6 |
| 20260505021502 | 61 | 176 | 5.0 | 11.0 | 0.00 | 0.00 | 0.00 | 40 | 1004.5 |
| 20260505021001 | 61 | 139 | 5.0 | 9.0 | 0.00 | 0.00 | 0.00 | 39 | 1004.7 |
| 20260505020501 | 61 | 175 | 4.0 | 8.0 | 0.00 | 0.00 | 0.00 | 40 | 1004.6 |
| 20260505020002 | 61 | 174 | 4.0 | 11.0 | 0.00 | 0.00 | 0.00 | 40 | 1004.7 |
| 20260505015502 | 61 | 163 | 5.0 | 11.0 | 0.00 | 0.00 | 0.00 | 39 | 1004.8 |
| 20260505015100 | 61 | 165 | 5.0 | 10.0 | 0.00 | 0.00 | 0.00 | 39 | 1004.8 |
| 20260505014610 | 61 | 164 | 4.0 | 11.0 | 0.00 | 0.00 | 0.00 | 39 | 1004.8 |
| 20260505014100 | 61 | 136 | 3.0 | 11.0 | 0.00 | 0.00 | 0.00 | 38 | 1004.8 |
| 20260505013559 | 61 | 187 | 4.0 | 9.0 | 0.00 | 0.00 | 0.00 | 38 | 1004.7 |
| 20260505013059 | 61 | 187 | 4.0 | 9.0 | 0.00 | 0.00 | 0.00 | 38 | 1004.8 |
| 20260505013001 | 61 | 155 | 4.0 | 7.0 | 0.00 | 0.00 | 0.00 | 38 | 1004.8 |
| 20260505012600 | 61 | 156 | 3.0 | 8.0 | 0.00 | 0.00 | 0.00 | 38 | 1004.8 |
| 20260505012058 | 61 | 165 | 2.0 | 6.0 | 0.00 | 0.00 | 0.00 | 39 | 1004.8 |
| 20260505011606 | 61 | 167 | 3.0 | 5.0 | 0.00 | 0.00 | 0.00 | 38 | 1004.7 |
| 20260505011057 | 61 | 155 | 3.0 | 6.0 | 0.00 | 0.00 | 0.00 | 38 | 1004.8 |
| 20260505010557 | 61 | 151 | 3.0 | 5.0 | 0.00 | 0.00 | 0.00 | 38 | 1004.7 |
| 20260505010057 | 61 | 142 | 3.0 | 8.0 | 0.00 | 0.00 | 0.00 | 38 | 1004.7 |
| 20260505005557 | 61 | 158 | 3.0 | 9.0 | 0.00 | 0.00 | 0.00 | 38 | 1004.5 |
| 20260505005059 | 61 | 150 | 2.0 | 6.0 | 0.00 | 0.00 | 0.00 | 38 | 1004.5 |
| 20260505004557 | 61 | 178 | 2.0 | 5.0 | 0.00 | 0.00 | 0.00 | 38 | 1004.5 |
| 20260505004057 | 62 | 142 | 2.0 | 6.0 | 0.00 | 0.00 | 0.00 | 37 | 1004.5 |
| 20260505003557 | 62 | 123 | 2.0 | 5.0 | 0.00 | 0.00 | 0.00 | 38 | 1004.6 |
| 20260505003056 | 62 | 169 | 2.0 | 5.0 | 0.00 | 0.00 | 0.00 | 37 | 1004.5 |
| 20260505002556 | 62 | 182 | 2.0 | 6.0 | 0.00 | 0.00 | 0.00 | 37 | 1004.5 |
| 20260505002056 | 62 | 191 | 3.0 | 6.0 | 0.00 | 0.00 | 0.00 | 37 | 1004.4 |
| 20260505001557 | 62 | 181 | 2.0 | 6.0 | 0.00 | 0.00 | 0.00 | 36 | 1004.3 |
| 20260505001055 | 63 | 148 | 2.0 | 6.0 | 0.00 | 0.00 | 0.00 | 36 | 1004.2 |
| 20260505000555 | 63 | 157 | 3.0 | 6.0 | 0.00 | 0.00 | 0.00 | 35 | 1004.0 |
| 20260505000114 | 64 | 170 | 2.0 | 8.0 | 0.00 | 0.00 | 0.00 | 35 | 1004.1 |
| 20260504235557 | 64 | 163 | 2.0 | 6.0 | 0.00 | 0.00 | 0.00 | 34 | 1004.1 |
| 20260504235055 | 64 | 163 | 1.0 | 6.0 | 0.00 | 0.00 | 0.00 | 34 | 1004.2 |
| 20260504234555 | 65 | 188 | 2.0 | 7.0 | 0.00 | 0.00 | 0.00 | 32 | 1004.1 |
| 20260504234055 | 65 | 184 | 4.0 | 7.0 | 0.00 | 0.00 | 0.00 | 32 | 1004.1 |
| 20260504233554 | 65 | 205 | 3.0 | 6.0 | 0.00 | 0.00 | 0.00 | 32 | 1004.1 |
| 20260504233108 | 65 | 77 | 2.0 | 8.0 | 0.00 | 0.00 | 0.00 | 33 | 1004.1 |
| 20260504232554 | 65 | 191 | 3.0 | 8.0 | 0.00 | 0.00 | 0.00 | 33 | 1004.0 |
| 20260504232053 | 65 | 205 | 0.0 | 6.0 | 0.00 | 0.00 | 0.00 | 33 | 1004.1 |
| 20260504231553 | 65 | 202 | 2.0 | 7.0 | 0.00 | 0.00 | 0.00 | 33 | 1004.1 |
| 20260504231053 | 65 | 203 | 2.0 | 7.0 | 0.00 | 0.00 | 0.00 | 32 | 1004.1 |